This is the latest recevied weather packets stored in our database for station/object WW3TRG. If no packets are shown the sender has not sent any weather packets the latest 10 day(s).
| Time | Temp. | Humidity | Pressure | Rain* | Wind** | Luminosity | Snow |
|---|---|---|---|---|---|---|---|
| 1777731718 | 11.11° C | 63% | 1012.6 hPa | 0 mm | - | 88 W/m² | - |
| 1777731415 | 11.67° C | 63% | 1012.5 hPa | 0 mm | - | 591 W/m² | - |
| 1777731113 | 11.67° C | 63% | 1012.4 hPa | 0 mm | - | 650 W/m² | - |
| 1777730811 | 10.56° C | 65% | 1012.5 hPa | 0 mm | - | 610 W/m² | - |
| 1777730508 | 11.67° C | 63% | 1012.8 hPa | 0 mm | - | 670 W/m² | - |
| 1777730203 | 10.56° C | 65% | 1012.6 hPa | 0 mm | - | 422 W/m² | - |
| 1777729901 | 10.56° C | 65% | 1012.6 hPa | 0 mm | - | 218 W/m² | - |
| 1777729597 | 10.56° C | 67% | 1012.6 hPa | 0 mm | - | 526 W/m² | - |
| 1777729294 | 10° C | 67% | 1012.5 hPa | 0 mm | - | 580 W/m² | - |
| 1777728991 | 10.56° C | 67% | 1012.7 hPa | 0 mm | - | 442 W/m² | - |
| 1777728687 | 11.67° C | 66% | 1012.6 hPa | 0 mm | - | 411 W/m² | - |
| 1777728384 | 11.67° C | 69% | 1012.6 hPa | 0 mm | - | 437 W/m² | - |
| 1777728082 | 10.56° C | 69% | 1012.6 hPa | 0 mm | - | 424 W/m² | - |
| 1777727779 | 10° C | 71% | 1012.7 hPa | 0 mm | - | 340 W/m² | - |
| 1777727475 | 9.44° C | 73% | 1012.7 hPa | 0 mm | - | 142 W/m² | - |
| 1777727173 | 9.44° C | 71% | 1012.6 hPa | 0 mm | - | 243 W/m² | - |
| 1777726871 | 10.56° C | 71% | 1012.7 hPa | 0 mm | - | 358 W/m² | - |
| 1777726566 | 10° C | 74% | 1012.7 hPa | 0 mm | - | 295 W/m² | - |
| 1777726264 | 8.89° C | 74% | 1012.9 hPa | 0 mm | - | 347 W/m² | - |
| 1777725961 | 8.89° C | 76% | 1012.9 hPa | 0 mm | - | 270 W/m² | - |
| 1777725657 | 8.33° C | 78% | 1012.9 hPa | 0 mm | - | 131 W/m² | - |
| 1777725356 | 8.33° C | 78% | 1012.9 hPa | 0 mm | - | 150 W/m² | - |
| 1777725052 | 8.33° C | 78% | 1012.7 hPa | 0 mm | - | 147 W/m² | - |
| 1777724749 | 8.33° C | 78% | 1012.6 hPa | 0 mm | - | 157 W/m² | - |
| 1777724446 | 8.33° C | 78% | 1012.4 hPa | 0 mm | - | 186 W/m² | - |
* Rain latest hour (hover to see other rain measurements)
** Current wind speed in m/s (hover to see current wind gust speed)